Torino Bric Croce, Italy

8:50 AM CEST on September 23, 2017 (GMT +0200)
Torino Bric Croce

Weather History for LIMK - July, 2013

Change the Weather History Date:

Tuesday, July 2, 2013

  Actual Average Record
Temperature  
Mean Temperature 70 °F -  
Max Temperature 78 °F 76 °F 83 °F (2015)
Min Temperature 62 °F 62 °F 55 °F (1996)
Cooling Degree Days 5    
Growing Degree Days 20 (Base 50)    
Moisture  
Dew Point 56 °F    
Average Humidity 61    
Maximum Humidity 88    
Minimum Humidity 34    
Precipitation  
Precipitation 0.00 in 0.06 in - ()
Sea Level Pressure  
Sea Level Pressure 30.08 in    
Wind  
Wind Speed 4 mph ()    
Max Wind Speed 12 mph    
Max Gust Speed -    
Visibility 10.6 miles    
Events      
Averages and records for this station are not official NWS values.
T = Trace of Precipitation, MM = Missing Value Source: Averaged Metar Reports

Daily Weather History Graph

Daily Weather History Graph

Search for Another Location

Airport or City:

Trip Planner

Search our weather history database for the weather conditions in past years. The results will help you decide how hot, cold, wet, or windy it might be!

Date:

Astronomy

Jul. 02, 2013 Rise Set
Actual Time 5:46 AM CEST 9:19 PM CEST
Civil Twilight 5:09 AM CEST 9:56 PM CEST
Nautical Twilight 4:20 AM CEST 10:45 PM CEST
Astronomical Twilight 3:16 AM CEST 11:49 PM CEST
Moon 1:48 AM CEST (7/2) 4:10 PM CEST (7/2)
Length of Visible Light 16h 46m
Length of Day
15h 32m
Waning Crescent, 29% of the Moon is Illuminated
Jul 2
Waning Crescent
Jul 8
New
Jul 16
First Quarter
Jul 22
Full
Jul 29
Last Quarter

Hourly Weather History & Observations

Time (CEST) Temp. Dew Point Humidity Pressure Visibility Wind Dir Wind Speed Gust Speed Precip Events Conditions
12:55 AM 69.8 °F 55.4 °F 60% 30.09 in - Calm Calm - N/A   Clear
1:55 AM 69.8 °F 51.8 °F 53% 30.09 in - South 2.3 mph - N/A   Clear
2:00 AM 70 °F 52 °F 43%  in 19 mi South 2.3 mph - -  
2:55 AM 68.0 °F 53.6 °F 60% 30.09 in - NNE 3.5 mph - N/A   Clear
3:55 AM 68.0 °F 57.2 °F 68% 30.09 in - NNE 2.3 mph - N/A   Clear
4:55 AM 64.4 °F 57.2 °F 77% 30.09 in - North 3.5 mph - N/A   Clear
5:00 AM 64 °F 57 °F 71%  in 19 mi North 3.5 mph - -  
5:55 AM 64.4 °F 57.2 °F 77% 30.09 in - NNE 6.9 mph - N/A   Clear
6:55 AM 64.4 °F 55.4 °F 73% 30.09 in - NNE 5.8 mph - N/A   Clear
7:55 AM 62.6 °F 57.2 °F 82% 30.09 in - North 6.9 mph - N/A   Clear
8:00 AM 63 °F 56 °F 72%  in 12 mi North 6.9 mph - -   Mostly Cloudy
8:55 AM 64.4 °F 59.0 °F 83% 30.09 in - North 3.5 mph - N/A   Clear
9:55 AM 66.2 °F 57.2 °F 73% 30.12 in - North 3.5 mph - N/A   Clear
10:55 AM 69.8 °F 57.2 °F 64% 30.12 in - Calm Calm - N/A   Clear
11:00 AM 70 °F 58 °F 56%  in 19 mi Calm Calm - -   Clear
11:55 AM 73.4 °F 57.2 °F 57% 30.12 in - South 3.5 mph - N/A   Clear
12:55 PM 75.2 °F 59.0 °F 57% 30.12 in 6.2 mi ESE 3.5 mph - N/A   Partly Cloudy
1:55 PM 77.0 °F 55.4 °F 47% 30.12 in 6.2 mi ESE 3.5 mph - N/A   Partly Cloudy
2:00 PM 76 °F 56 °F 39%  in 19 mi ESE 3.5 mph - -   Scattered Clouds
2:55 PM 77.0 °F 55.4 °F 47% 30.09 in 6.2 mi SSE 3.5 mph - N/A   Scattered Clouds
3:55 PM 77.0 °F 53.6 °F 44% 30.09 in 6.2 mi SE 5.8 mph - N/A   Mostly Cloudy
4:55 PM 77.0 °F 53.6 °F 44% 30.06 in 6.2 mi Calm Calm - N/A   Partly Cloudy
5:00 PM 77 °F 54 °F 34%  in 25 mi Calm Calm - -   Scattered Clouds
5:55 PM 77.0 °F 53.6 °F 44% 30.06 in 6.2 mi SSE 4.6 mph - N/A   Scattered Clouds
6:55 PM 75.2 °F 51.8 °F 44% 30.04 in 6.2 mi SSE 9.2 mph - N/A   Scattered Clouds
7:55 PM 71.6 °F 53.6 °F 53% 30.04 in 6.2 mi SSE 11.5 mph - N/A   Scattered Clouds
8:00 PM 72 °F 53 °F 40%  in 16 mi SSE 11.5 mph - -   Mostly Cloudy
8:55 PM 69.8 °F 53.6 °F 56% 30.04 in 6.2 mi SSE 6.9 mph - N/A   Partly Cloudy
9:55 PM 68.0 °F 53.6 °F 60% 30.04 in 6.2 mi North 8.1 mph - N/A   Partly Cloudy
10:55 PM 64.4 °F 60.8 °F 88% 30.06 in 6.2 mi North 9.2 mph - N/A   Partly Cloudy
11:00 PM 64 °F 61 °F 87%  in 19 mi North 9.2 mph - -   Partly Cloudy
11:55 PM 62.6 °F 59.0 °F 88% 30.06 in - NNE 9.2 mph - N/A   Clear